[[{"header":{"parameterUnit":"m.s-1","parameterCategory":1,"la1":30.2991,"la2":30.254,"lo1":-89.0895,"lo2":-89.0444,"dy":0.0017,"dx":0.0017,"nx":28,"ny":28,"refTime":"2025-04-21T09:00:00:Z","depth":0,"parameterNumber":2,"parameterNumberName":"U-component_of_WINDS"},"data":[0,0,0,0,0,0,0,0,0,0,0,0,0,0,0,0,0,0,0,0,0,0,0,0,0,0,0,0,0,0,0,0,0,0,0,0,0,0,0,0,0,0,0,0,0,0,0,0,0,0,0,0,0,0,0,0,0,0,-1.3054,-1.3055,0,-1.3145,-1.3146,-1.3147,-1.3172,-1.3171,-1.3171,-1.317,-1.3265,-1.3268,-1.3271,0,0,0,0,0,0,0,0,0,0,0,0,0,-1.2906,-1.2909,-1.3054,-1.3055,-1.3057,-1.3145,-1.3146,-1.3147,-1.3172,-1.3171,-1.3171,-1.317,-1.3264,-1.3268,-1.3271,0,0,0,0,0,0,0,0,0,0,0,0,0,-1.2981,-1.291,-1.3054,-1.3079,-1.3083,-1.3144,-1.3146,-1.3147,-1.3172,-1.3171,-1.317,-1.317,-1.3263,-1.3267,-1.3272,-1.3316,0,0,-1.3286,-1.3288,0,0,0,0,0,0,0,0,-1.2977,-1.2986,-1.3075,-1.3078,-1.3081,-1.3146,-1.3128,-1.3204,-1.3172,-1.3138,-1.317,-1.3169,-1.3226,-1.3234,-1.3253,-1.332,-1.3324,-1.3286,-1.3289,-1.3291,-1.3292,0,0,0,0,0,0,0,-1.2971,-1.2983,-1.309,-1.3076,-1.308,-1.3087,-1.3097,-1.3143,-1.3186,-1.3141,-1.3143,-1.3153,-1.3228,-1.3248,-1.3255,-1.3326,-1.3286,-1.329,-1.3293,-1.3295,-1.3435,-1.3436,0,0,0,0,0,0,-1.2962,-1.2978,-1.3087,-1.3093,-1.3026,-1.3091,-1.3102,-1.3126,-1.3185,-1.3193,-1.3154,-1.3154,-1.3241,-1.325,-1.3259,-1.3314,-1.3291,-1.3295,-1.3298,-1.3434,-1.3435,-1.3436,0,0,0,0,0,0,-1.2958,-1.2971,-1.3084,-1.3036,-1.3051,-1.3094,-1.3122,-1.3128,-1.3148,-1.3195,-1.3203,-1.3166,-1.3241,-1.3252,-1.3301,-1.3318,-1.3297,-1.3301,-1.3432,-1.3434,-1.3435,-1.3425,0,0,0,0,0,0,-1.2954,-1.297,-1.2986,-1.3036,-1.3053,-1.3124,-1.3123,-1.3131,-1.3156,-1.3157,-1.3209,-1.3216,-1.3241,-1.3294,-1.3306,-1.3324,-1.3305,-1.3431,-1.3433,-1.3435,-1.3424,-1.3426,-1.3428,0,0,0,0,0,-1.2949,-1.298,-1.2987,-1.3,-1.3074,-1.3125,-1.3135,-1.3161,-1.3157,-1.3174,-1.3204,-1.3215,-1.3314,-1.3299,-1.3312,-1.3332,-1.343,-1.3433,-1.3435,-1.3423,-1.3426,-1.3428,0,0,0,0,0,0,-1.2931,-1.2987,-1.2995,-1.3043,-1.3079,-1.3129,-1.3151,-1.3163,-1.3201,-1.3201,-1.3233,-1.3245,-1.3292,-1.3317,-1.3299,-1.3378,-1.3372,-1.3377,-1.3359,-1.3362,-1.3364,-1.3357,-1.3309,0,0,0,0,0,-1.2933,-1.2968,-1.3015,-1.3053,-1.3071,-1.3108,-1.3131,-1.3148,-1.3187,-1.3202,-1.3236,-1.3274,-1.3314,-1.3339,-1.3378,-1.3428,-1.344,-1.3448,-1.345,-1.3451,-1.3455,-1.3484,-1.3488,-1.3443,-1.3443,-1.3443,0,0,-1.2937,-1.2972,-1.2992,-1.3051,-1.3081,-1.3117,-1.3121,-1.3159,-1.3187,-1.3209,-1.3257,-1.3283,-1.3328,-1.3377,-1.3401,-1.3399,-1.347,-1.3454,-1.3454,-1.3458,-1.3486,-1.349,-1.3494,-1.3445,-1.3445,-1.3444,0,0,-1.2963,-1.2993,-1.3028,-1.3057,-1.3102,-1.3127,-1.3135,-1.3184,-1.3201,-1.325,-1.3267,-1.3302,-1.3369,-1.34,-1.3425,-1.3464,-1.3475,-1.3476,-1.3485,-1.3513,-1.3516,-1.3519,-1.3534,-1.3538,-1.348,-1.348,-1.348,0,-1.2963,-1.3018,-1.3045,-1.3083,-1.3108,-1.3129,-1.3165,-1.3193,-1.3249,-1.3267,-1.3264,-1.335,-1.3381,-1.3439,-1.3448,-1.3468,-1.3479,-1.347,-1.3513,-1.3517,-1.352,-1.3534,-1.3539,-1.3479,-1.3479,-1.3479,-1.3479,0,-1.3015,-1.3053,-1.3077,-1.3129,-1.3157,-1.3194,-1.3228,-1.3254,-1.3269,-1.3294,-1.3344,-1.3383,-1.343,-1.3445,-1.3461,-1.3505,-1.3503,-1.3507,-1.3502,-1.3524,-1.3538,-1.3543,-1.3479,-1.3479,-1.3479,-1.3479,0,0,-1.3033,-1.3099,-1.3108,-1.3132,-1.3183,-1.3213,-1.3252,-1.3298,-1.3319,-1.3357,-1.3391,-1.3448,-1.3452,-1.348,-1.3499,-1.3523,-1.3552,-1.3524,-1.3526,-1.3528,-1.3604,-1.3601,-1.3607,-1.356,-1.3561,-1.3562,-1.3601,0,-1.3065,-1.3134,-1.3159,-1.3216,-1.3252,-1.3272,-1.3306,-1.3341,-1.3366,-1.3401,-1.3429,-1.3469,-1.347,-1.3488,-1.3513,-1.3543,-1.3568,-1.3541,-1.3592,-1.3594,-1.358,-1.3614,-1.3611,-1.3646,-1.3606,-1.3607,-1.3608,0,-1.3113,-1.315,-1.321,-1.3257,-1.3273,-1.3302,-1.3347,-1.338,-1.3421,-1.3437,-1.3469,-1.3487,-1.3529,-1.3522,-1.3581,-1.3562,-1.3585,-1.3603,-1.3605,-1.3611,-1.3602,-1.3621,-1.3657,-1.3663,-1.3616,-1.3616,-1.3615,0,-1.312,-1.3185,-1.323,-1.325,-1.3305,-1.3326,-1.335,-1.3391,-1.3417,-1.3456,-1.3473,-1.3517,-1.3541,-1.3575,-1.3605,-1.3597,-1.3662,-1.3657,-1.3677,-1.3677,-1.369,-1.3689,-1.3731,-1.3704,-1.3704,-1.3704,-1.3704,0,-1.3154,-1.319,-1.3233,-1.3261,-1.3302,-1.3331,-1.3372,-1.3398,-1.3433,-1.3467,-1.3488,-1.3519,-1.3556,-1.3593,-1.3616,-1.3662,-1.3673,-1.3688,-1.3694,-1.3686,-1.3684,-1.3702,-1.37,-1.3706,-1.3705,-1.3705,-1.3705,0,-1.3169,-1.3199,-1.3249,-1.3298,-1.3311,-1.3339,-1.3381,-1.3409,-1.3435,-1.3477,-1.3489,-1.3529,-1.3573,-1.3606,-1.3663,-1.3679,-1.3728,-1.3734,-1.3714,-1.3717,-1.3736,-1.3733,-1.379,-1.3799,-1.3766,-1.3767,-1.3767,0,-1.3188,-1.3216,-1.3268,-1.3291,-1.3315,-1.3353,-1.3379,-1.341,-1.3437,-1.3486,-1.3508,-1.3554,-1.3591,-1.3661,-1.3696,-1.374,-1.3748,-1.3765,-1.3755,-1.3746,-1.3749,-1.3746,-1.375,-1.3766,-1.3766,-1.3766,-1.3766,0,-1.322,-1.3234,-1.3271,-1.3313,-1.3344,-1.3379,-1.3415,-1.3433,-1.3471,-1.35,-1.3545,-1.3574,-1.3632,-1.3677,-1.3725,-1.3751,-1.3765,-1.3769,-1.3776,-1.3769,-1.3756,-1.3764,-1.3718,-1.3768,-1.3768,-1.3768,-1.3767,-1.3767,-1.3239,-1.3265,-1.3305,-1.3345,-1.3375,-1.3408,-1.3437,-1.3466,-1.3503,-1.3552,-1.3568,-1.3614,-1.3656,-1.3721,-1.3748,-1.3786,-1.3786,-1.3796,-1.3799,-1.3801,-1.38,-1.375,-1.3795,-1.3795,-1.3795,-1.3795,-1.3795,0,-1.3272,-1.3299,-1.3336,-1.3385,-1.3417,-1.3426,-1.3466,-1.3493,-1.3533,-1.357,-1.3606,-1.3658,-1.3702,-1.3741,-1.3787,-1.3809,-1.3817,-1.382,-1.3819,-1.3825,-1.3798,-1.3787,-1.3813,-1.3813,-1.3813,-1.3813,-1.3813,-1.3813,-1.3294,-1.3338,-1.3356,-1.3416,-1.3443,-1.3488,-1.351,-1.3541,-1.357,-1.3627,-1.3663,-1.3687,-1.3726,-1.3774,-1.3815,-1.3826,-1.3842,-1.3844,-1.3856,-1.3829,-1.3827,-1.3825,-1.3815,-1.3847,-1.3847,-1.388,-1.3881,-1.3881]},{"header":{"parameterUnit":"m.s-1","parameterCategory":1,"la1":30.2991,"la2":30.254,"lo1":-89.0895,"lo2":-89.0444,"dy":0.0017,"dx":0.0017,"nx":28,"ny":28,"refTime":"2025-04-21T09:00:00:Z","depth":0,"parameterNumber":3,"parameterNumberName":"V-component_of_WINDS"},"data":[0,0,0,0,0,0,0,0,0,0,0,0,0,0,0,0,0,0,0,0,0,0,0,0,0,0,0,0,0,0,0,0,0,0,0,0,0,0,0,0,0,0,0,0,0,0,0,0,0,0,0,0,0,0,0,0,0,0,4.0626,4.0627,0,4.0733,4.0734,4.0735,4.0724,4.0722,4.0721,4.0719,4.0825,4.0829,4.0833,0,0,0,0,0,0,0,0,0,0,0,0,0,4.0409,4.0413,4.0626,4.0627,4.0629,4.0732,4.0734,4.0735,4.0724,4.0722,4.072,4.0718,4.0823,4.0828,4.0833,0,0,0,0,0,0,0,0,0,0,0,0,0,4.0508,4.0414,4.0626,4.0636,4.0638,4.0732,4.0734,4.0736,4.0725,4.0722,4.072,4.0717,4.0821,4.0828,4.0834,4.0925,0,0,4.0854,4.0857,0,0,0,0,0,0,0,0,4.0502,4.0516,4.0633,4.0635,4.0637,4.0713,4.0696,4.0799,4.0725,4.0691,4.0719,4.0716,4.0789,4.0798,4.0823,4.093,4.0934,4.0855,4.0859,4.0862,4.0863,0,0,0,0,0,0,0,4.0495,4.0511,4.0668,4.0634,4.0637,4.0633,4.0645,4.0715,4.0753,4.0694,4.0694,4.0707,4.079,4.0817,4.0826,4.0936,4.0855,4.086,4.0864,4.0867,4.1121,4.1123,0,0,0,0,0,0,4.0487,4.0505,4.0665,4.0671,4.0562,4.0639,4.0652,4.0691,4.0752,4.0759,4.0709,4.0706,4.0807,4.0818,4.083,4.094,4.0861,4.0868,4.0871,4.1118,4.1121,4.1124,0,0,0,0,0,0,4.0482,4.0501,4.066,4.0588,4.0608,4.0646,4.0689,4.0694,4.0722,4.0763,4.0769,4.073,4.0806,4.082,4.0901,4.0943,4.0871,4.0877,4.1115,4.1119,4.1123,4.116,0,0,0,0,0,0,4.0476,4.0499,4.0535,4.0589,4.0612,4.0732,4.0692,4.0698,4.0734,4.0731,4.0785,4.0791,4.0805,4.0892,4.0908,4.0951,4.0882,4.1111,4.1117,4.1122,4.1155,4.1165,4.1173,0,0,0,0,0,4.0468,4.054,4.0537,4.0556,4.0658,4.0734,4.0747,4.0762,4.0737,4.0773,4.0799,4.079,4.0936,4.09,4.0918,4.0964,4.1108,4.1115,4.1121,4.1151,4.1163,4.1173,0,0,0,0,0,0,4.0489,4.0548,4.0544,4.0637,4.0681,4.0732,4.0777,4.0774,4.0825,4.082,4.0836,4.0848,4.093,4.0955,4.0914,4.1054,4.1018,4.1029,4.1035,4.1047,4.1056,4.1048,4.0887,0,0,0,0,0,4.0504,4.0563,4.061,4.0687,4.0709,4.074,4.0773,4.0781,4.0827,4.0845,4.0877,4.0921,4.0977,4.1013,4.1066,4.1159,4.117,4.1199,4.1208,4.1215,4.1224,4.1274,4.1287,4.1145,4.1145,4.1145,0,0,4.0536,4.0576,4.0611,4.0692,4.0727,4.0786,4.0755,4.0819,4.0862,4.0854,4.0933,4.0958,4.1008,4.1095,4.1135,4.1118,4.1265,4.1223,4.1228,4.1233,4.1282,4.1295,4.1307,4.115,4.1149,4.1148,0,0,4.0626,4.0661,4.0729,4.0765,4.0819,4.0839,4.0855,4.0907,4.0924,4.1004,4.0999,4.105,4.1146,4.1181,4.1212,4.1314,4.1307,4.1331,4.1378,4.1427,4.1438,4.1448,4.1485,4.1498,4.1339,4.1339,4.134,0,4.0659,4.0748,4.0764,4.0829,4.0864,4.0861,4.0929,4.0963,4.1031,4.1055,4.1035,4.1155,4.1188,4.1284,4.1309,4.1333,4.1352,4.1325,4.1436,4.1446,4.1455,4.149,4.1504,4.1342,4.1342,4.1341,4.1341,0,4.0786,4.0849,4.0897,4.0964,4.1005,4.1071,4.1095,4.1134,4.1139,4.116,4.1241,4.128,4.1342,4.1365,4.1369,4.1461,4.1449,4.1432,4.1397,4.1471,4.1504,4.1518,4.1346,4.1345,4.1344,4.1343,0,0,4.0892,4.0967,4.0985,4.1015,4.1074,4.1122,4.1187,4.1249,4.1282,4.1328,4.1383,4.1464,4.145,4.1484,4.1492,4.1535,4.1614,4.1514,4.1515,4.1531,4.1717,4.1729,4.1744,4.1609,4.1612,4.1614,4.1713,0,4.0987,4.1105,4.112,4.1224,4.1281,4.1278,4.1335,4.1377,4.1398,4.1449,4.1472,4.153,4.1506,4.1527,4.1569,4.1595,4.1651,4.1588,4.166,4.1662,4.1648,4.1762,4.1775,4.1866,4.1726,4.1728,4.173,0,4.1114,4.1166,4.1275,4.1326,4.1351,4.1402,4.1459,4.1508,4.1555,4.1567,4.1606,4.1609,4.1675,4.1637,4.1729,4.1685,4.1715,4.1732,4.1736,4.1744,4.1701,4.1772,4.1896,4.191,4.175,4.1748,4.1747,0,4.118,4.1277,4.1355,4.1381,4.1442,4.1478,4.1505,4.155,4.1586,4.1635,4.1658,4.1715,4.1745,4.1788,4.1806,4.1776,4.1896,4.1859,4.1908,4.1908,4.1934,4.1932,4.2064,4.1952,4.1952,4.1952,4.1952,0,4.1285,4.1352,4.1386,4.1434,4.1509,4.1525,4.1599,4.1624,4.1663,4.1716,4.1716,4.1764,4.1784,4.1836,4.185,4.1923,4.1937,4.1948,4.1951,4.1949,4.1947,4.1969,4.1963,4.1956,4.1955,4.1954,4.1953,0,4.1372,4.1397,4.1482,4.1534,4.1548,4.1601,4.1644,4.169,4.1711,4.1777,4.1793,4.1826,4.1886,4.1908,4.1981,4.199,4.2076,4.2073,4.2061,4.2061,4.2109,4.2104,4.226,4.2281,4.2155,4.2156,4.2157,0,4.1438,4.149,4.1547,4.1582,4.1611,4.1668,4.1705,4.1723,4.1761,4.1818,4.1857,4.1918,4.1967,4.2064,4.2093,4.2149,4.2148,4.2198,4.2156,4.2152,4.2149,4.2146,4.2151,4.2206,4.2207,4.2209,4.2209,0,4.1552,4.1561,4.1615,4.1674,4.1718,4.1764,4.1809,4.1838,4.1862,4.1905,4.1968,4.2006,4.2081,4.2141,4.2199,4.2225,4.2221,4.2222,4.2237,4.2235,4.2226,4.2232,4.2082,4.2219,4.2218,4.2217,4.2217,4.2216,4.163,4.1676,4.1724,4.1783,4.1819,4.1861,4.1907,4.1934,4.1987,4.2051,4.2057,4.2125,4.2169,4.2246,4.2275,4.2327,4.2313,4.2334,4.2339,4.2344,4.2348,4.2217,4.2337,4.2337,4.2337,4.2337,4.2337,0,4.1744,4.1775,4.183,4.1893,4.194,4.1933,4.1982,4.2022,4.2081,4.2124,4.2173,4.2244,4.2302,4.2336,4.2394,4.2429,4.2429,4.2444,4.2442,4.2448,4.2357,4.2339,4.2443,4.2443,4.2443,4.2443,4.2443,4.2443,4.1809,4.1887,4.1902,4.1997,4.2026,4.2094,4.2122,4.2161,4.2195,4.2275,4.2324,4.2346,4.2385,4.2445,4.2498,4.2506,4.2528,4.2544,4.2551,4.2465,4.2454,4.2444,4.2427,4.2548,4.2548,4.2638,4.2639,4.2639]}]]